Location: Dumpton Point
(51.3500°N, 1.4433°E)
Time: 18:49:33
(UTC+00:00)

Nadezhda 3 Rocket - Pass Details

Date: 09 April 2020
Orbit: 956 x 1000 km, 82.9° (Epoch: 01 June)

Event Time Altitude Azimuth Distance (km) Brightness Sun altitude
Exits shadow 21:41:21 43° 184° (S) 1,366 4.4 -24.0°
Maximum altitude 21:43:38 86° 98° (E) 996 3.9 -24.2°
Drops below altitude 10° 21:49:57 10° 11° (N) 2,740 6.9 -24.8°
Sets 21:52:27 0° 11° (N) 3,686 7.7 -25.0°
